Weather History for Syracuse, NY

Change the Weather History Date:

Wednesday, June 12, 2013

  Actual Average Record
Temperature  
Mean Temperature 65 °F 66 °F  
Max Temperature 74 °F 77 °F 94 °F (1949)
Min Temperature 55 °F 55 °F 39 °F (1906)
Degree Days  
Heating Degree Days 0 2  
Month to date heating degree days 41 38  
Since 1 June heating degree days 41 38  
Since 1 July heating degree days 6127 6628  
Cooling Degree Days 0 3  
Month to date cooling degree days 20 30  
Year to date cooling degree days 72 60  
Since 1 June cooling degree days 20 30  
Growing Degree Days 14 (Base 50)    
Moisture  
Dew Point 53 °F    
Average Humidity 70    
Maximum Humidity 93    
Minimum Humidity 46    
Precipitation  
Precipitation 0.00 in 0.11 in 2.35 in (1903)
Month to date precipitation 3.41 1.31  
Year to date precipitation 17.35 15.24  
Snow  
Snow 0.00 in 0.00 in 0.00 in (2002)
Month to date snowfall 0.0 0.0  
Since 1 June snowfall 0.0 0.0  
Since 1 July snowfall 115.4 123.8  
Snow Depth 0.00 in    
Sea Level Pressure  
Sea Level Pressure 29.85 in    
Wind  
Wind Speed 5 mph (WNW)    
Max Wind Speed 15 mph    
Max Gust Speed 18 mph    
Visibility 10 miles    
Events      
T = Trace of Precipitation, MM = Missing Value Source: NWS Daily Summary

Daily Weather History Graph

Daily Weather History Graph

Search for Another Location

Airport:

Trip Planner

Search our weather history database for the weather conditions in past years. The results will help you decide how hot, cold, wet, or windy it might be!

Date:

Astronomy

Jun. 12, 2013 Rise Set
Actual Time 5:24 AM EDT 8:44 PM EDT
Civil Twilight 4:49 AM EDT 9:19 PM EDT
Nautical Twilight 4:03 AM EDT 10:05 PM EDT
Astronomical Twilight 3:06 AM EDT 11:02 PM EDT
Moon 9:06 AM EDT (6/12) 11:13 PM EDT (6/12)
Length of Visible Light 16h 30m
Length of Day
15h 20m
Waxing Crescent, 14% of the Moon is Illuminated
Jun 12
Waxing Crescent
Jun 16
First Quarter
Jun 23
Full
Jun 30
Last Quarter
Jul 8
New

Hourly Weather History & Observations

Time (EDT) Temp. Dew Point Humidity Pressure Visibility Wind Dir Wind Speed Gust Speed Precip Events Conditions
12:09 AM 57.2 °F 53.6 °F 88% 29.79 in 10.0 mi WNW 10.4 mph - N/A   Mostly Cloudy
12:41 AM 57.2 °F 53.6 °F 88% 29.80 in 10.0 mi WNW 9.2 mph - N/A   Overcast
12:54 AM 57.9 °F 54.0 °F 87% 29.79 in 10.0 mi WNW 10.4 mph - N/A   Overcast
1:54 AM 57.0 °F 53.1 °F 87% 29.78 in 10.0 mi WNW 8.1 mph - N/A   Mostly Cloudy
2:54 AM 57.0 °F 53.1 °F 87% 29.80 in 10.0 mi West 6.9 mph - N/A   Overcast
3:33 AM 57.2 °F 53.6 °F 88% 29.81 in 10.0 mi West 6.9 mph - N/A   Overcast
3:40 AM 57.2 °F 53.6 °F 88% 29.82 in 10.0 mi West 6.9 mph - N/A   Overcast
3:54 AM 57.0 °F 53.1 °F 87% 29.81 in 10.0 mi WNW 5.8 mph - N/A   Overcast
4:20 AM 57.2 °F 53.6 °F 88% 29.82 in 10.0 mi West 9.2 mph - N/A   Overcast
4:54 AM 57.0 °F 53.1 °F 87% 29.82 in 10.0 mi WNW 9.2 mph - N/A   Mostly Cloudy
5:25 AM 55.4 °F 53.6 °F 94% 29.84 in 10.0 mi WNW 8.1 mph - N/A   Mostly Cloudy
5:54 AM 55.0 °F 53.1 °F 93% 29.84 in 10.0 mi West 6.9 mph - N/A   Scattered Clouds
6:54 AM 57.9 °F 53.1 °F 84% 29.85 in 10.0 mi WNW 8.1 mph - N/A   Scattered Clouds
7:39 AM 59.0 °F 53.6 °F 82% 29.87 in 10.0 mi NNW 6.9 mph - N/A   Mostly Cloudy
7:49 AM 60.8 °F 53.6 °F 77% 29.87 in 10.0 mi NW 8.1 mph - N/A   Mostly Cloudy
7:54 AM 60.1 °F 54.0 °F 80% 29.86 in 10.0 mi NNW 8.1 mph - N/A   Mostly Cloudy
7:56 AM 60.8 °F 53.6 °F 77% 29.87 in 10.0 mi NNW 11.5 mph - N/A   Mostly Cloudy
8:20 AM 60.8 °F 53.6 °F 77% 29.89 in 10.0 mi NW 9.2 mph - N/A   Mostly Cloudy
8:37 AM 60.8 °F 53.6 °F 77% 29.89 in 10.0 mi NNW 6.9 mph - N/A   Mostly Cloudy
8:54 AM 63.0 °F 53.1 °F 70% 29.88 in 10.0 mi Variable 5.8 mph - N/A   Scattered Clouds
9:18 AM 62.6 °F 51.8 °F 68% 29.89 in 10.0 mi NNW 6.9 mph - N/A   Mostly Cloudy
9:54 AM 64.9 °F 54.0 °F 68% 29.88 in 10.0 mi WNW 9.2 mph - N/A   Mostly Cloudy
10:01 AM 62.6 °F 53.6 °F 72% 29.90 in 10.0 mi WNW 8.1 mph - 0.01 in   Mostly Cloudy
10:47 AM 64.4 °F 51.8 °F 64% 29.91 in 10.0 mi NW 8.1 mph - N/A   Mostly Cloudy
10:54 AM 64.0 °F 52.0 °F 65% 29.90 in 10.0 mi NNW 8.1 mph - N/A   Mostly Cloudy
11:54 AM 66.0 °F 53.1 °F 63% 29.90 in 10.0 mi NW 6.9 mph - N/A   Mostly Cloudy
12:54 PM 69.1 °F 53.1 °F 57% 29.90 in 10.0 mi Variable 5.8 mph - N/A   Mostly Cloudy
1:54 PM 71.1 °F 53.1 °F 53% 29.88 in 10.0 mi WNW 3.5 mph - N/A   Mostly Cloudy
2:54 PM 71.1 °F 52.0 °F 51% 29.85 in 10.0 mi Calm Calm - N/A   Scattered Clouds
3:54 PM 72.0 °F 53.1 °F 51% 29.86 in 10.0 mi Calm Calm - N/A   Mostly Cloudy
4:54 PM 73.0 °F 53.1 °F 49% 29.84 in 10.0 mi SSW 6.9 mph - N/A   Scattered Clouds
5:54 PM 73.0 °F 52.0 °F 48% 29.83 in 10.0 mi Calm Calm - N/A   Scattered Clouds
6:54 PM 73.0 °F 53.1 °F 49% 29.84 in 10.0 mi West 5.8 mph - N/A   Scattered Clouds
7:54 PM 71.1 °F 52.0 °F 51% 29.83 in 10.0 mi WNW 3.5 mph - N/A   Scattered Clouds
8:54 PM 64.0 °F 54.0 °F 70% 29.82 in 10.0 mi NE 4.6 mph - N/A   Partly Cloudy
9:54 PM 63.0 °F 54.0 °F 72% 29.83 in 10.0 mi Calm Calm - N/A   Partly Cloudy
10:54 PM 59.0 °F 54.0 °F 83% 29.82 in 10.0 mi Calm Calm - N/A   Scattered Clouds
11:54 PM 59.0 °F 55.0 °F 87% 29.81 in 10.0 mi ESE 4.6 mph - N/A   Overcast